AirNav   ProFlight Series 2 Aviation Headset
 
 1051 users online  

5CL4 Natividad Medical Center Heliport
Salinas, California, USA

GOING TO SALINAS?


FAA INFORMATION EFFECTIVE 16 JULY 2020

Location

FAA Identifier: 5CL4
Lat/Long: 36-41-50.9500N 121-38-04.3000W
36-41.849167N 121-38.071667W
36.6974861,-121.6345278
(estimated)
Elevation: 70 ft. / 21 m (estimated)
Variation: 13E (1995)
From city: 2 miles SW of SALINAS, CA
Time zone: UTC -7 (UTC -8 during Standard Time)
Zip code: 93906

Heliport Operations

Heliport use: Private use, MEDICAL USE.
Activation date: 09/1999
Control tower: no
ARTCC: OAKLAND CENTER
FSS: OAKLAND FLIGHT SERVICE STATION
Attendance: CONTINUOUS
Wind indicator: lighted
Segmented circle: no
Lights: RDO-CTL

Heliport Communications

UNICOM: 123.075
WX ASOS at SNS (2.5 nm SE): PHONE 831-422-2830
WX AWOS-3PT at OAR (6 nm W): 134.025 (831-384-2967)
WX ASOS at MRY (12 nm SW): PHONE 831-642-0241
WX AWOS-3 at CVH (16 nm NE): 120.425 (831-636-4394)
WX ASOS at WVI (16 nm NW): 132.275 (831-724-8794)

Nearby radio navigation aids

VOR radial/distance  VOR name  Freq  Var
SNSr306/2.5SALINAS VORTAC117.3017E
BSRr345/31.0BIG SUR VORTAC114.0016E

 
NDB name  Hdg/Dist  Freq  Var  ID
CHUALAR312/14.626316EUAD ..- .- -..

Heliport Services

Runway Information

Helipad H1

Dimensions: 74 x 74 ft. / 23 x 23 m
Surface: concrete, in good condition
Runway edge lights: PERI
ACTVT PERIMETER LGTS, FLOOD LGTS AND WINDCONE - UNICOM 123.075
Operational restrictions: FATO MEASURES 108 FT DIAMETER.
Latitude: 36-41.849167N
Longitude: 121-38.071667W
Elevation: 70.0 ft.
Traffic pattern: leftleft
Markings: basic, in fair condition

Heliport Ownership and Management from official FAA records

Ownership: Privately-owned
Owner: NATIVIDAD MEDICAL CENTER
1441 CONSTITUTION BLVD
SALINAS, CA 93906
Phone 831-755-4111
Manager: JEFFERY A. CLEEK
1441 CONSTITUTION BLVD BLDG 900
SALINAS, CA 93906
Phone (831) 783-2614

Additional Remarks

FOR CD CTC NORCAL APCH AT 916-361-3748.

Instrument Procedures

There are no published instrument procedures at 5CL4.

Some nearby airports with instrument procedures:

KSNS - Salinas Municipal Airport (2 nm SE)
KOAR - Marina Municipal Airport (6 nm W)
KMRY - Monterey Regional Airport (12 nm SW)
KCVH - Hollister Municipal Airport (16 nm NE)
KWVI - Watsonville Municipal Airport (16 nm NW)
 
Loc | Ops | Rwys | IFR | FBO | Links
Com | Nav | Svcs | Stats | Notes
Area around 5CL4 (Natividad Medical Center Heliport)
 
Road maps at: MapQuest Bing Google
 
Aerial photo
No photo
 
Sectional chart

 
Airport distance calculator
Flying to Natividad Medical Center Heliport? Find the distance to fly.

From to 5CL4

Sunrise and sunset
Times for 09-Aug-2020
 Local
(UTC-7)
 Zulu
(UTC)
Morning civil twilight05:5312:53
Sunrise06:2113:21
Sunset20:0303:03
Evening civil twilight20:3103:31

Current date and time
Zulu (UTC)  10-Aug-2020 00:02:59
Local (UTC-7)  09-Aug-2020 17:02:59
 
METAR
KSNS 
2nm SE 
092353Z 33015KT 10SM CLR 21/13 A2992 RMK AO2 SLPNO T02060133 10250 20200 56006 $
KOAR 
7nm W 
134.025 831-384-2967
No observation available
KMRY 
12nm SW 
092354Z AUTO 31006KT 10SM CLR 24/13 A2992 RMK AO2 SLP142 T02390128 10267 20200 56007
KWVI 
16nm NW 
092353Z AUTO 24008KT 10SM CLR 00/ A2993 RMK AO2 SLP136 T0000 56011 $
KCVH 
16nm NE 
092355Z AUTO 24017KT 10SM CLR 25/11 A2989 RMK A01
TAF
KSNS 
2nm SE 
091720Z 0918/1018 30011KT P6SM SKC FM100300 32007KT P6SM BKN009 FM100600 VRB05KT 6SM BR OVC006 FM100900 00000KT 1/2SM FG VV002 FM101600 VRB03KT P6SM FEW003
KMRY 
12nm SW 
091720Z 0918/1018 VRB03KT P6SM SCT004 FM091830 28009KT P6SM SKC FM100400 VRB04KT P6SM BKN008 FM100700 VRB03KT 5SM BR OVC005 FM101000 00000KT 1/2SM FG VV002 FM101530 VRB03KT P6SM FEW003
NOTAMs
Click for the latest NOTAMs
NOTAMs are issued by the DoD/FAA and will open in a separate window not controlled by AirNav.

 

 
 

Would you like to see your business listed on this page?

 If your business provides an interesting product or service to pilots, flight crews, aircraft, or users of the Natividad Medical Center Heliport, you should consider listing it here.  To start the listing process, click on the button below
 
Add a business
 

Other Pages about Natividad Medical Center Heliport

Update a link
 
Copyright © AirNav, LLC. All rights reserved. Privacy Policy  Contact